Regional Weather Roundup
Issued by NWS

Home | Current Version | Previous Version | Text Only | Print | Product List | Glossary On
Versions: 1 2 3 4 5 6 7 8 9 10 11 12 13 14 15 16 17 18 19 20 21 22 23 24 25 26 27 28 29 30 31 32 33 34 35 36 37 38 39 40 41 42 43 44 45 46 47 48 49 50
000
ASUS43 KDTX 111210
RWRMI
MICHIGAN HOURLY REGIONAL WEATHER ROUNDUP
NATIONAL WEATHER SERVICE DETROIT/PONTIAC MI
ISSUED BY NATIONAL WEATHER SERVICE GRAND RAPIDS MI
700 AM EST SUN DEC 11 2016

NOTE: "FAIR" INDICATES FEW OR NO CLOUDS BELOW 12,000 FEET WITH NO
SIGNIFICANT WEATHER AND/OR OBSTRUCTION TO VISIBILITY.

MIZ047>049-052>055-059>063-066>070-074>076-081>083-111300-
SOUTHEAST LOWER MICHIGAN

CITY           SKY/WX    TMP DP  RH WIND       PRES   REMARKS
ADRIAN         LGT SNOW  23  22  96 S10       30.27F FOG     WCI  12
6HR MIN TEMP:  22; 6HR MAX TEMP:  23; 6HR PCP:  0.03;

ALMA           LGT SNOW  23  21  93 E5        30.24F WCI  17
ANN ARBOR      LGT SNOW  23  22  96 SE8       30.27F FOG     WCI  14
BAD AXE        LGT SNOW  21  19  89 CALM      30.29F
DETROIT CITY   LGT SNOW  24  23  96 SE6       30.30F FOG     WCI  17
6HR MIN TEMP:  23; 6HR MAX TEMP:  25; 6HR PCP:  0.01;

DETROIT        LGT SNOW  24  23  96 S7        30.29F FOG     WCI  16
6HR MIN TEMP:  23; 6HR MAX TEMP:  25; 6HR PCP:  0.05;

FLINT          LGT SNOW  22  20  92 SE7       30.26F FOG     WCI  13
6HR MIN TEMP:  22; 6HR MAX TEMP:  23; 6HR PCP:  0.07;

GROSSE ILE     LGT SNOW  28  24  87 S16       30.29F WCI  15
6HR MIN TEMP:  24; 6HR MAX TEMP:  28;

HILLSDALE      LGT SNOW  23  21  93 SE8       30.21F WCI  14
HOWELL         LGT SNOW  23  20  89 SE7       30.24S WCI  15

CITY           SKY/WX    TMP DP  RH WIND       PRES   REMARKS
JACKSON        LGT SNOW  23  19  85 SE9       30.21F FOG     WCI  13
6HR MIN TEMP:  22; 6HR MAX TEMP:  23; 6HR PCP:  0.04;

LANSING        LGT SNOW  23  19  85 SE10      30.23F FOG     WCI  12
6HR MIN TEMP:  22; 6HR MAX TEMP:  23; 6HR PCP:  0.07;

MASON          LGT SNOW  23  21  94 SE7       30.23F WCI  14
MONROE         LGT SNOW  26  24  94 S7        30.29F WCI  18
6HR MIN TEMP:  24; 6HR MAX TEMP:  26;

MT. CLEMENS    FLURRIES  24  23  95 S6        30.28F WCI  17
6HR MIN TEMP:  23; 6HR MAX TEMP:  25; 6HR PCP:  0.01;

PONTIAC        LGT SNOW  22  19  89 S9        30.25F VSB 1   WCI  12
6HR MIN TEMP:  22; 6HR MAX TEMP:  23; 6HR PCP:  0.02;

PORT HOPE        N/A     21  17  84 CALM      30.29F
6HR MIN TEMP:  20; 6HR MAX TEMP:  21;

PORT HURON     LGT SNOW  23  21  93 CALM      30.31F
TRI CITIES     LGT SNOW  23  21  92 SE8       30.27F FOG     WCI  14
6HR MIN TEMP:  21; 6HR MAX TEMP:  23; 6HR PCP: TRACE;

YPSILANTI      LGT SNOW  25  23  92 S9        30.29F FOG     WCI  15
6HR MIN TEMP:  24; 6HR MAX TEMP:  25; 6HR PCP: TRACE;

$$
MIZ043>046-050>051-056>058-064>065-071>073-077>080-111300-
SOUTHWEST LOWER MICHIGAN

CITY           SKY/WX    TMP DP  RH WIND       PRES   REMARKS
BATTLE CREEK   LGT SNOW  23  21  92 SE9       30.19F FOG     WCI  13
6HR MIN TEMP:  22; 6HR MAX TEMP:  23; 6HR PCP:  0.02;

BENTON HARBOR  LGT SNOW  25  21  85 SE10      30.16F FOG     WCI  15
6HR MIN TEMP:  24; 6HR MAX TEMP:  25; 6HR PCP:  0.06;

BIG RAPIDS     LGT SNOW  21  19  91 SE8       30.16F WCI  12
6HR MIN TEMP:  19; 6HR MAX TEMP:  21;

COLDWATER      LGT SNOW  24  22  92 SE9       30.21F WCI  15
6HR MIN TEMP:  23; 6HR MAX TEMP:  24;

HOLLAND        LGT SNOW  24  21  88 SE12      30.17F FOG     WCI  13
6HR MIN TEMP:  23; 6HR MAX TEMP:  24; 6HR PCP:  0.01;

GRAND RAPIDS   LGT SNOW  23  19  85 SE8       30.19F FOG     WCI  14
6HR MIN TEMP:  22; 6HR MAX TEMP:  23; 6HR PCP:  0.04;

KALAMAZOO      LGT SNOW  24  20  84 SE8       30.17F VSB 1   WCI  15
6HR MIN TEMP:  23; 6HR MAX TEMP:  24; 6HR PCP:  0.03;

MARSHALL       LGT SNOW  24  21  91 SE7       30.21F WCI  15
6HR MIN TEMP:  22; 6HR MAX TEMP:  24;

MOUNT PLEASANT LGT SNOW  22  20  93 E6        30.22F WCI  15
6HR MIN TEMP:  20; 6HR MAX TEMP:  22; 6HR PCP:  0.02;

MUSKEGON       CLOUDY    24  20  84 SE14      30.16F WCI  12
6HR MIN TEMP:  23; 6HR MAX TEMP:  24; 6HR PCP:  0.13;

STURGIS        LGT SNOW  24  22  92 S9        30.19F WCI  14
6HR MIN TEMP:  22; 6HR MAX TEMP:  24;

$$
MIZ016>042-111300-
NORTHERN LOWER MICHIGAN

CITY           SKY/WX    TMP DP  RH WIND       PRES   REMARKS
ALPENA         CLOUDY    17  10  74 SW3       30.26F
6HR MIN TEMP:  15; 6HR MAX TEMP:  17;

BEAVER ISLAND  FLURRIES  21  19  93 NE3       30.20F
BELLAIRE       MOCLDY    17  15  91 CALM      30.22F
6HR MIN TEMP:  17; 6HR MAX TEMP:  19;

CADILLAC       LGT SNOW  18  15  87 E7        30.13F WCI   9
CHARLEVOIX     CLOUDY    19  16  85 SE7       30.23F WCI  10
6HR MIN TEMP:  19; 6HR MAX TEMP:  21;

GAYLORD        PTCLDY    15  10  80 SE6       30.18F WCI   6
6HR MIN TEMP:  12; 6HR MAX TEMP:  16;

HOUGHTON LAKE  LGT SNOW  17  14  88 SE6       30.20F FOG     WCI   9
6HR MIN TEMP:  15; 6HR MAX TEMP:  17; 6HR PCP:  0.03;

MANISTEE       LGT SNOW  20  18  92 E9        30.16F FOG     WCI   9
OSCODA         LGT SNOW  20  17  85 MISG      30.27F
6HR MIN TEMP:  17; 6HR MAX TEMP:  20;

PELLSTON       LGT SNOW  17  13  84 SE3       30.22F FOG
6HR MIN TEMP:  14; 6HR MAX TEMP:  18; 6HR PCP: TRACE;

TRAVERSE CITY  LGT SNOW  21  16  81 SE6       30.19F WCI  13
6HR MIN TEMP:  20; 6HR MAX TEMP:  21; 6HR PCP: TRACE;

LUDINGTON      LGT SNOW  21  19  93 E8        30.15F WCI  12
6HR MIN TEMP:  19; 6HR MAX TEMP:  21;

$$
MIZ007>008-015-111300-
EASTERN UPPER MICHIGAN

CITY           SKY/WX    TMP DP  RH WIND       PRES   REMARKS
KINROSS        FLURRIES  16  13  88 E3        30.22F
6HR MIN TEMP:  11; 6HR MAX TEMP:  16; 6HR PCP: TRACE;

MACKINAC ISLAN CLOUDY    21  17  86 CALM      30.21F
6HR MIN TEMP:  19; 6HR MAX TEMP:  21;

NEWBERRY       CLOUDY    13   8  81 CALM      30.19F
6HR MIN TEMP:  10; 6HR MAX TEMP:  13;

S. S. MARIE    CLOUDY    17  14  88 NE3       30.22F
6HR MIN TEMP:   8; 6HR MAX TEMP:  17;

$$
MIZ004>006-011>014-085-111300-
CENTRAL UPPER MICHIGAN

CITY           SKY/WX    TMP DP  RH WIND       PRES   REMARKS
MANISTIQUE     CLOUDY    11   7  83 CALM      30.19F
6HR MIN TEMP:   6; 6HR MAX TEMP:  11;

ESCANABA       CLOUDY    14   9  80 N5        30.19F WCI   6
6HR MIN TEMP:  11; 6HR MAX TEMP:  14; 6HR PCP: TRACE;

MENOMINEE      LGT SNOW  15  12  88 NE6       30.16F FOG     WCI   6
6HR MIN TEMP:  14; 6HR MAX TEMP:  15; 6HR PCP: TRACE;

SAWYER-GWINN   CLOUDY     7   3  85 CALM      30.14F
$$
MIZ001>003-009>011-084-111300-
WESTERN UPPER MICHIGAN

CITY           SKY/WX    TMP DP  RH WIND       PRES   REMARKS
IRON MOUNTAIN  CLOUDY    12   4  70 E3        30.11F
6HR MIN TEMP:   8; 6HR MAX TEMP:  12;

HOUGHTON       MOCLDY     3  -2  79 CALM      30.13F
6HR MIN TEMP:   0; 6HR MAX TEMP:   9;

COPPER HARBOR    N/A     10   4  76 NW5       30.17F WCI   2
6HR MIN TEMP:  10; 6HR MAX TEMP:  14;

IRONWOOD       CLOUDY     3   0  87 E7        30.10F WCI  -9
6HR MIN TEMP:  -2; 6HR MAX TEMP:   3;

$$

ABBREVIATIONS USED IN REMARKS
   TC - TEMPERATURE IN CELSIUS
  WCI - WIND CHILL INDEX
   HX - HEAT INDEX
  VSB - VISIBILITY




USA.gov is the U.S. government's official web portal to all federal, state and local government web resources and services.